Weather WX

World > North America > United States > Mississippi

Coahoma, Mississippi Regional Weather

Lat: 34.37N, Lon: 90.52W
Wx Zone: MSZ010
Warning FLW WEATHER ALERT - (More Info. Click Here) Warning
Feedback

Coahoma, MS Regional Weather

Expires:201906182300;;700603
ASUS44 KJAN 182210
RWRMS 

MISSISSIPPI HOURLY WEATHER ROUNDUP
NATIONAL WEATHER SERVICE JACKSON MS
500 PM CDT TUE JUN 18 2019

NOTE: "FAIR: INDICATES FEW OR NO CLOUDS BELOW 12,000 FEET WITH NO
SIGNIFICANT WEATHER AND/OR OBSTRUCTIONS TO VISIBILITY.


MSZ001>002-007>008-010>013-018>021-025>028-034>036-182300-
NORTHWEST MISSISSIPPI
  
CITY           SKY/WX    TMP DP  RH WIND       PRES   REMARKS
BATESVILLE     FAIR      82  72  69 CALM      29.83F                  
CLARKSDALE     SUNNY     91  68  46 W8G15     29.83F HX  95           
CLEVELAND      MOCLDY    85  71  64 SW5       29.83F HX  90           
GREENWOOD      PTSUNNY   87  69  54 VRB5      29.83F HX  91           
GREENVILLE     FAIR      87  70  56 W8        29.83F HX  92           
OLIVE BRANCH   PTSUNNY   82  75  78 S7        29.83F                  
OXFORD         FAIR      82  70  65 CALM      29.86F                  
TUNICA           N/A     86  68  54 CALM      29.83F                  
WINONA         FAIR      86  71  61 W5        29.84F HX  91           
$$


SKY/WX - Weather  TMP - Temperature  DP - Dew Point  RH - Relative Humidity
WIND - Wind Direction/Speed PRES - Barometric Pressure VSB - Visibility
WCI - Wind Chill Index E13G22 Wind - East Wind 13 mph/Gusts of 22 mph